Regional Weather Roundup
Issued by NWS

Home | Current Version | Previous Version | Text Only | Print | Product List | Glossary Off
Versions: 1 2 3 4 5 6 7 8 9 10 11 12 13 14 15 16 17 18 19 20 21 22 23 24 25 26 27 28 29 30 31 32 33 34 35 36 37 38 39 40 41 42 43 44 45 46 47 48 49 50

000
ASUS43 KIND 191859
RWRIN

WEATHER ROUNDUP FOR INDIANA
NATIONAL WEATHER SERVICE INDIANAPOLIS IN
300 PM EDT SUN APR 19 2015

NOTE: "FAIR" INDICATES FEW OR NO CLOUDS BELOW 12,000 FEET WITH NO
SIGNIFICANT WEATHER AND/OR OBSTRUCTIONS TO VISIBILITY.

* - STATION DOES NOT REPORT WEATHER SUCH AS PRECIPITATION OR FOG.

+ - STATION NOT QUALITY CONTROLLED BY THE NATIONAL WEATHER SERVICE.
    USE DATA WITH CAUTION...ESPECIALLY DEWPOINT AND RELATIVE
    HUMIDITY OBSERVATIONS.

INZ001>003-010>013-019-020-192000-
NORTHWEST INDIANA

CITY           SKY/WX    TMP DP  RH WIND       PRES   REMARKS
GARY /AIRPORT/ PTSUNNY   70  32  24 SE17G36   29.63F
RENSSELAER +   LGT RAIN  55  54  94 E13       29.62F

$$

LMZ046-743>745-192000-
SOUTHERN LAKE MICHIGAN

STATION/POSITION TIME  TEMP WIND        PRES
                       AIR  DIR/SP/G
                 (UTC) (F)  (DEG/KT/KT) (MB)
BURNS HARBOR     1800   67  120/ 15/ 21 1004.4F
MICHIGAN CITY    1800   68   80/ 15/ 21   N/A
4NW MICH CITY    1800   58  140/ 12/ 14   N/A

$$

INZ004-005-014>016-021>024-192000-
NORTH CENTRAL INDIANA

CITY           SKY/WX    TMP DP  RH WIND       PRES   REMARKS
GOSHEN         LGT RAIN  62  45  53 E13       29.68F
SOUTH BEND     CLOUDY    66  42  41 SE15      29.68F

$$

INZ006>009-017-018-025>027-192000-
NORTHEAST INDIANA

CITY           SKY/WX    TMP DP  RH WIND       PRES   REMARKS
ANGOLA *+      MOSUNNY   61  39  44 E10       29.72F
FORT WAYNE     RAIN      60  49  66 E17       29.69F

$$

INZ028-029-035-036-043>045-051>053-192000-
WEST CENTRAL INDIANA

CITY           SKY/WX    TMP DP  RH WIND       PRES   REMARKS
CRAWFORDSVL +  LGT RAIN  55  52  90 E13       29.57F
GREENCASTLE +  LGT RAIN  55  52  88 E9        29.57F
LAFAYETTE      LGT RAIN  54  53  97 E14       29.59F FOG
TERRE HAUTE    LGT RAIN  60  58  92 E12       29.54F

$$

INZ030>032-037>040-046>048-054>057-064-065-192000-
CENTRAL INDIANA

CITY           SKY/WX    TMP DP  RH WIND       PRES   REMARKS
INDIANAPOLIS   RAIN      60  57  89 E12       29.56F FOG
-EAGLE CREEK   LGT RAIN  58  57  97 E6        29.58F FOG
KOKOMO *+      CLOUDY    55  52  88 E16       29.63F
MT COMFORT *+  CLOUDY    59 N/A N/A E13       29.60F
SHELBYVILLE    LGT RAIN  62  59  90 E8        29.58F FOG

$$

INZ033-034-041-042-049-050-058-059-192000-
EAST CENTRAL INDIANA

CITY           SKY/WX    TMP DP  RH WIND       PRES   REMARKS
MUNCIE         LGT RAIN  60  58  92 E8        29.63F FOG

$$

INZ060-061-067>069-081>083-085>088-192000-
SOUTHWEST INDIANA

CITY           SKY/WX    TMP DP  RH WIND       PRES   REMARKS
EVANSVILLE     LGT RAIN  67  64  90 S6        29.53F FOG
HUNTINGBURG *+ CLOUDY    66  63  88 SE5       29.53F

$$

INZ062-063-066-070>080-084-089>092-192000-
SOUTH CENTRAL AND SOUTHEAST INDIANA

CITY           SKY/WX    TMP DP  RH WIND       PRES   REMARKS
BLOOMINGTON    LGT RAIN  61  59  93 E6        29.55F
MADISON *+     CLOUDY    63  61  94 E8        29.57F

$$



USA.gov is the U.S. government's official web portal to all federal, state and local government web resources and services.